Meteo Giornale » Osservazioni meteo Repubblica Ceca » Praha-Ruzyne

ore: 21:00 - Osservazioni Meteo Praha-Ruzyne
Lat. 50° 6' N Lon. 14° 15' E Alt. 365 metri s.l.m.

molto_nuvoloso Europe/Prague

-1 °C

Molto Nuvoloso

Temp. 24 Ore

-2 °C

3 °C

Est

25.9 Km/h

Dew point -4 °C

Umidità 80 %

Visibilità  10 Km

Il sole sorge alle ore 07:21

Il sole tramonta alle ore 16:15

Data e Ora Cielo e Fenomeni T °C DP °C Um. % Pres. hPa Vis. km Vento km/h
Oggi h: 21:00 molto_nuvoloso Molto Nuvoloso -1 -4 80 1017 10 E 25.9
Oggi h: 20:30 molto_nuvoloso Molto Nuvoloso -1 -4 80 1017 10 E 24
Oggi h: 20:00 molto_nuvoloso Molto Nuvoloso -1 -3 86 1017 10 E 27.8
Oggi h: 19:30 poco_nuvoloso Poco Nuvoloso -1 -4 80 1016 10 E 27.8
Oggi h: 18:30 sereno Sereno -1 -4 80 1017 10 E 24
Oggi h: 18:00 sereno Sereno -1 -4 80 1017 10 E 24
Oggi h: 17:30 sereno Sereno -1 -4 80 1016 10 E 24
Oggi h: 17:00 sereno Sereno -0 -4 74 1016 10 E 25.9
Oggi h: 16:30 sereno Sereno 0 -4 74 1016 10 E/NE 22.2
Oggi h: 16:00 poco_nuvoloso Poco Nuvoloso 1 -4 69 1016 10 E 22.2
Oggi h: 15:30 poco_nuvoloso Poco Nuvoloso 1 -4 69 1016 10 E 27.8
Oggi h: 15:00 poco_nuvoloso Poco Nuvoloso 2 -3 69 1016 10 E 22.2
Oggi h: 14:30 nuvoloso Nuvoloso 3 -3 64 1016 10 E 22.2
Oggi h: 14:00 nuvoloso Nuvoloso 3 -2 69 1016 10 E/NE 25.9
Oggi h: 13:30 nuvoloso Nuvoloso 3 -2 69 1016 10 E 25.9
Oggi h: 13:22 nuvoloso Nuvoloso 3 -2 69 1016 10 E 25.9
Oggi h: 13:00 molto_nuvoloso Molto Nuvoloso 2 -0 86 1016 10 E/NE 18.5
Oggi h: 12:30 molto_nuvoloso Molto Nuvoloso 2 -0 86 1016 10 E/NE 18.5
Oggi h: 12:15 molto_nuvoloso Molto Nuvoloso 1 -1 86 1016 10 E/NE 20.3
Oggi h: 12:00 molto_nuvoloso Molto Nuvoloso 1 -1 86 1016 10 E/NE 22.2
Oggi h: 11:30 molto_nuvoloso Molto Nuvoloso 1 -0 93 1017 9 E/NE 16.7
Oggi h: 11:16 molto_nuvoloso Molto Nuvoloso 1 -0 93 1017 8 NE 16.7
Oggi h: 11:00 molto_nuvoloso Molto Nuvoloso 0 -0 100 1017 7 E/NE 14.8
Oggi h: 10:44 foschia Foschia 0 -1 92 1017 5 E/NE 14.8
Oggi h: 10:30 coperto_neve Neve Debole Foschia -0 -1 92 1017 4 NE 14.8
Oggi h: 10:16 coperto_neve Neve Debole Foschia -0 -1 92 1017 3 NE 13
Oggi h: 10:00 coperto_neve Neve Debole Foschia -0 -1 92 1017 3 N/NE 13
Oggi h: 09:40 coperto_neve Neve Debole Foschia -0 -1 92 1017 2 N/NE 11.1
Oggi h: 09:30 coperto_neve Neve Foschia -0 -1 92 1017 1 NE 11.1
Oggi h: 09:24 coperto_neve Neve Foschia -0 -1 92 1017 1 NE 11.1
Oggi h: 09:22 coperto_neve Neve Foschia -0 -1 92 1017 2 NE 11.1
Oggi h: 09:11 coperto_neve Neve Debole Foschia -0 -1 92 1017 3 NE 11.1
Oggi h: 09:00 coperto_neve Neve Debole Foschia -0 -1 92 1017 3 NE 11.1
Oggi h: 08:30 coperto_neve Neve Debole Foschia -1 -1 100 1017 2 NE 11.1
Oggi h: 08:00 coperto_neve Neve Debole Foschia -1 -1 100 1017 2 N/NE 11.1
Oggi h: 07:30 coperto_neve Neve Debole Foschia -1 -1 100 1017 3 N/NE 11.1
Oggi h: 07:13 coperto_neve Neve Foschia -1 -1 100 1017 3 N/NE 7.4
Oggi h: 07:12 coperto_neve Neve Debole Foschia -1 -1 100 1017 3 N/NE 7.4
Oggi h: 07:00 coperto_neve Neve Foschia -1 -1 100 1017 4 N/NE 11.1
Oggi h: 06:47 coperto_neve Neve Foschia -1 -1 100 1016 3 N 11.1
Oggi h: 06:30 coperto_neve Neve Foschia -1 -1 100 1016 5 N/NE 13
Oggi h: 06:22 coperto_neve Neve Foschia -1 -1 100 1016 5 N/NE 11.1
Oggi h: 06:00 coperto_neve Neve Debole -1 -2 92 1017 7 N 9.3
Oggi h: 05:30 coperto_neve Neve Debole -1 -2 92 1017 8 N 9.3
Oggi h: 05:00 coperto_neve Neve Debole -1 -2 92 1017 8 N 9.3
Oggi h: 04:30 coperto_neve Neve Debole -1 -2 92 1017 8 N 7.4
Oggi h: 04:00 coperto_neve Neve Debole -1 -2 92 1017 8 N 5.5
Oggi h: 03:53 coperto_neve Neve Debole -1 -2 92 1017 7 N 5.5
Oggi h: 03:39 coperto_neve Neve -1 -2 92 1017 5 N/NE 9.3
Oggi h: 03:30 coperto_neve Neve Debole -1 -2 92 1018 8 N 5.5
Oggi h: 03:20 coperto_neve Neve Debole -1 -3 86 1018 10 N 5.5
Oggi h: 03:00 poco_nuvoloso Poco Nuvoloso -1 -3 86 1018 10 N 9.3
Oggi h: 02:30 poco_nuvoloso Poco Nuvoloso -1 -3 86 1018 10 N 11.1
Oggi h: 02:00 coperto_neve Neve Debole -1 -4 80 1018 10 N/NO 13
Oggi h: 01:34 coperto_neve Neve Debole -1 -6 68 1018 10 N 9.3
Oggi h: 01:30 nuvoloso Nuvoloso -1 -6 68 1018 10 N 9.3
Oggi h: 01:00 molto_nuvoloso Molto Nuvoloso -1 -6 68 1019 10 N 11.1
Oggi h: 00:30 poco_nuvoloso Poco Nuvoloso -1 -6 68 1019 10 N/NO 7.4
Oggi h: 00:00 sereno Sereno -1 -7 63 1019 10 N/NO 7.4
Ieri h: 23:30 sereno Sereno -1 -8 58 1020 10 N 9.3
Ieri h: 23:00 sereno Sereno -1 -8 58 1020 10 N 11.1
Ieri h: 22:30 sereno Sereno -1 -8 58 1020 10 N 11.1
Ieri h: 22:00 sereno Sereno -1 -8 58 1021 10 N/NO 9.3
Ieri h: 21:30 sereno Sereno -1 -8 58 1021 10 N 11.1
Ieri h: 21:00 sereno Sereno -2 -9 58 1021 10 N 11.1